Date String (YYYY-MM-DD hh:mm:ss) UTC,Instrument flags,absolute air pressure of the measurement (hPa),sample flow rate (lpm),inlet stack bypass flow (lpm),air temperature of the measurement (°C),ambient temperature measured by the external sensor (°C),aerosol sample conditioner tube jacket temperature (°C),OPC LED temperature (°C),internal box temperature (°C),relative humidity of the measurement (%),span deviation,mass concentration of particles derived from Lorenz-Mie calculation of OPC scattering (μg/m³),mass concentration of particles derived from Lorenz-Mie calculation of OPC scattering (μg/m³),mass concentration of particles derived from Lorenz-Mie calculation of OPC scattering (μg/m³)
DateTimeUTC,F1_M11,P_M11,Q1_M11,Q2_M11,T1_M11,T2_M11,T3_M11,T4_M11,T5_M11,U1_M11,ZSPAN_M11,X2_M11,X0_M11,X1_M11
2023-07-16 09:00:00,SystemResetWarning,0833.8,4.99,000.00,029.7,028.5,000.0,038.1,031.3,24.0,-001.2,0007.37,0014.74,0006.55
2023-07-16 09:01:00,SystemResetWarning,0833.8,5.00,000.00,029.7,028.5,000.0,038.1,031.3,24.5,-001.4,0007.33,0014.60,0006.53
2023-07-16 09:02:00,SystemResetWarning,0833.9,5.00,000.00,029.7,028.5,000.0,038.1,031.3,24.1,-000.7,0007.33,0013.86,0006.49
2023-07-16 09:03:00,SystemResetWarning,0833.8,5.00,000.00,029.7,028.6,000.0,038.2,031.3,23.9,-000.2,0007.33,0014.66,0006.45
2023-07-16 09:04:00,SystemResetWarning,0833.9,5.00,000.00,029.8,028.6,000.0,038.2,031.4,22.5,-000.2,0007.31,0015.40,0006.40
2023-07-16 09:05:00,SystemResetWarning,0833.9,5.01,000.00,029.8,028.6,000.0,038.2,031.4,24.1,0000.0,0007.27,0016.10,0006.34
2023-07-16 09:06:00,SystemResetWarning,0833.9,5.00,000.00,029.8,028.6,000.0,038.2,031.4,24.1,0000.2,0007.21,0016.19,0006.27
2023-07-16 09:07:00,SystemResetWarning,0833.9,5.00,000.00,029.8,028.7,000.0,038.2,031.4,23.8,0000.4,0007.10,0016.95,0006.17
2023-07-16 09:08:00,SystemResetWarning,0833.9,5.00,000.00,029.9,028.4,000.0,038.2,031.4,23.5,0000.1,0006.99,0017.37,0006.09
2023-07-16 09:09:00,SystemResetWarning,0833.8,4.99,000.00,029.8,026.5,000.0,038.1,031.2,23.2,-000.1,0006.91,0016.44,0006.02
2023-07-16 09:10:00,SystemResetWarning,0833.9,5.00,000.00,029.7,025.3,000.0,038.0,030.9,23.1,0000.0,0006.88,0016.19,0006.01
2023-07-16 09:11:00,SystemResetWarning,0833.8,5.01,000.00,029.6,025.3,000.0,038.0,030.7,22.5,-000.1,0006.90,0015.93,0006.01
2023-07-16 09:12:00,SystemResetWarning,0833.8,5.01,000.00,029.5,025.6,000.0,038.0,030.6,21.9,0000.0,0006.94,0015.99,0006.03
2023-07-16 09:13:00,SystemResetWarning,0833.8,5.00,000.00,029.4,026.0,000.0,038.0,030.7,22.2,0000.0,0006.88,0015.91,0006.04
2023-07-16 09:14:00,SystemResetWarning,0833.8,5.00,000.00,029.4,026.4,000.0,038.0,030.8,22.2,0000.0,0006.79,0014.99,0006.00
2023-07-16 09:15:00,SystemResetWarning,0833.8,5.00,000.00,029.4,026.8,000.0,038.0,030.8,22.2,0000.0,0006.75,0014.28,0005.97
2023-07-16 09:16:00,SystemResetWarning,0833.8,5.00,000.00,029.4,027.1,000.0,038.0,030.9,25.4,-000.0,0006.73,0013.79,0005.95
2023-07-16 09:17:00,SystemResetWarning,0833.7,4.99,000.00,029.4,027.3,000.0,038.0,030.9,27.3,0000.2,0006.70,0013.58,0005.92
2023-07-16 09:18:00,SystemResetWarning,0833.8,5.00,000.00,029.4,027.5,000.0,038.0,031.0,26.8,0000.5,0006.76,0012.95,0005.93
2023-07-16 09:19:00,SystemResetWarning,0833.8,5.00,000.00,029.4,027.7,000.0,038.0,031.0,26.4,0001.1,0006.81,0012.48,0005.94
2023-07-16 09:20:00,SystemResetWarning,0833.8,5.00,000.00,029.5,027.8,000.0,038.0,031.0,26.3,0001.3,0006.84,0013.20,0005.94
2023-07-16 09:21:00,SystemResetWarning,0833.8,5.00,000.00,029.5,027.9,000.0,038.0,031.1,26.6,0001.8,0006.84,0013.64,0005.92
2023-07-16 09:22:00,SystemResetWarning,0833.8,5.00,000.00,029.5,028.0,000.0,038.0,031.1,26.1,0001.9,0006.79,0013.83,0005.86
2023-07-16 09:23:00,SystemResetWarning,0833.8,5.01,000.00,029.5,028.1,000.0,038.0,031.1,25.6,0001.1,0006.71,0013.72,0005.81
2023-07-16 09:24:00,SystemResetWarning,0833.8,5.00,000.00,029.5,028.2,000.0,038.0,031.1,24.9,0000.0,0006.68,0013.55,0005.78
2023-07-16 09:25:00,SystemResetWarning,0833.8,5.00,000.00,029.6,028.3,000.0,038.0,031.2,24.0,0001.7,0006.73,0014.18,0005.78
2023-07-16 09:26:00,SystemResetWarning,0833.8,4.99,000.00,029.6,028.3,000.0,038.1,031.2,23.8,0001.9,0006.76,0014.26,0005.81
2023-07-16 09:27:00,SystemResetWarning,0833.8,4.99,000.00,029.6,028.3,000.0,038.1,031.2,23.3,0001.1,0006.82,0014.03,0005.88
2023-07-16 09:28:00,SystemResetWarning,0833.7,4.99,000.00,029.6,028.4,000.0,038.1,031.2,23.6,0000.0,0006.93,0014.23,0005.95
2023-07-16 09:29:00,SystemResetWarning,0833.7,5.00,000.00,029.7,028.4,000.0,038.1,031.3,22.6,0000.1,0006.95,0014.25,0006.00
2023-07-16 09:30:00,SystemResetWarning,0833.7,5.01,000.00,029.7,028.5,000.0,038.1,031.3,21.4,0000.0,0006.97,0014.20,0006.04
2023-07-16 09:31:00,SystemResetWarning,0833.7,5.01,000.00,029.7,028.5,000.0,038.1,031.3,21.1,-000.0,0007.00,0013.40,0006.10
2023-07-16 09:32:00,SystemResetWarning,0833.7,5.00,000.00,029.7,028.5,000.0,038.2,031.3,21.1,0000.1,0007.02,0013.03,0006.14
2023-07-16 09:33:00,SystemResetWarning,0833.7,5.00,000.00,029.8,028.5,000.0,038.2,031.4,21.2,-000.1,0007.07,0012.58,0006.20
2023-07-16 09:34:00,SystemResetWarning,0833.7,5.00,000.00,029.8,028.6,000.0,038.2,031.4,21.4,-000.3,0007.10,0014.06,0006.23
2023-07-16 09:35:00,SystemResetWarning,0833.7,5.00,000.00,029.8,028.6,000.0,038.2,031.4,21.4,0000.0,0007.14,0014.27,0006.25
2023-07-16 09:36:00,SystemResetWarning,0833.7,5.00,000.00,029.8,028.6,000.0,038.2,031.4,21.6,0000.4,0007.11,0013.66,0006.24
2023-07-16 09:37:00,SystemResetWarning,0833.7,5.00,000.00,029.8,028.6,000.0,038.3,031.4,22.0,0000.4,0007.04,0013.32,0006.19
2023-07-16 09:38:00,SystemResetWarning,0833.7,5.00,000.00,029.9,028.6,000.0,038.3,031.5,21.9,0001.0,0006.91,0013.13,0006.08
2023-07-16 09:39:00,SystemResetWarning,0833.7,5.00,000.00,029.9,028.7,000.0,038.3,031.5,21.3,0001.2,0006.76,0012.88,0005.97
2023-07-16 09:40:00,SystemResetWarning,0833.7,5.00,000.00,029.9,028.4,000.0,038.3,031.5,19.2,0000.6,0006.58,0012.53,0005.84
2023-07-16 09:41:00,SystemResetWarning,0833.7,5.00,000.00,029.9,026.6,000.0,038.2,031.3,19.4,0000.0,0006.43,0012.28,0005.70
2023-07-16 09:42:00,SystemResetWarning,0833.7,5.00,000.00,029.8,025.3,000.0,038.1,031.0,19.0,0000.0,0006.30,0012.57,0005.56
2023-07-16 09:43:00,SystemResetWarning,0833.6,5.01,000.00,029.6,025.2,000.0,038.0,030.7,20.2,0000.0,0006.16,0012.39,0005.45
2023-07-16 09:44:00,SystemResetWarning,0833.7,5.01,000.00,029.5,025.5,000.0,038.1,030.6,20.3,0000.0,0006.05,0012.07,0005.35
2023-07-16 09:45:00,SystemResetWarning,0833.7,4.99,000.00,029.5,026.0,000.0,038.1,030.7,21.0,0000.0,0005.96,0010.55,0005.27
2023-07-16 09:46:00,SystemResetWarning,0833.7,5.00,000.00,029.4,026.4,000.0,038.1,030.7,20.6,0000.0,0005.84,0010.00,0005.21
2023-07-16 09:47:00,SystemResetWarning,0833.7,5.01,000.00,029.4,026.7,000.0,038.1,030.8,20.8,0000.0,0005.81,0009.94,0005.19
2023-07-16 09:48:00,SystemResetWarning,0833.7,5.00,000.00,029.4,027.0,000.0,038.0,030.9,20.6,0000.0,0005.80,0010.05,0005.14
2023-07-16 09:49:00,SystemResetWarning,0833.7,5.01,000.00,029.4,027.3,000.0,038.0,030.9,20.4,0000.0,0005.79,0010.09,0005.10
2023-07-16 09:50:00,SystemResetWarning,0833.7,5.00,000.00,029.4,027.5,000.0,038.0,030.9,20.2,0000.0,0005.76,0010.04,0005.02
2023-07-16 09:51:00,SystemResetWarning,0833.6,5.01,000.00,029.5,027.7,000.0,038.0,031.0,20.6,0000.0,0005.72,0010.10,0004.98
2023-07-16 09:52:00,SystemResetWarning,0833.7,4.99,000.00,029.5,027.8,000.0,038.0,031.0,19.9,0000.0,0005.65,0010.07,0004.93
2023-07-16 09:53:00,SystemResetWarning,0833.7,4.99,000.00,029.5,027.9,000.0,038.0,031.0,20.7,0000.0,0005.59,0009.51,0004.91
2023-07-16 09:54:00,SystemResetWarning,0833.7,5.01,000.00,029.5,028.0,000.0,038.0,031.1,21.2,0000.3,0005.59,0009.47,0004.89
2023-07-16 09:55:00,SystemResetWarning,0833.7,5.00,000.00,029.5,028.1,000.0,038.0,031.1,20.7,0000.0,0005.56,0009.39,0004.86
2023-07-16 09:56:00,SystemResetWarning,0833.7,5.01,000.00,029.6,028.2,000.0,038.0,031.1,20.6,0000.0,0005.51,0009.38,0004.83
2023-07-16 09:57:00,SystemResetWarning,0833.8,5.01,000.00,029.6,028.2,000.0,038.1,031.1,20.5,0000.0,0005.50,0009.62,0004.79
2023-07-16 09:58:00,SystemResetWarning,0833.7,5.00,000.00,029.6,028.2,000.0,038.1,031.2,20.6,0000.0,0005.46,0009.60,0004.75
2023-07-16 09:59:00,SystemResetWarning,0833.7,5.00,000.00,029.6,028.3,000.0,038.1,031.2,20.7,0000.0,0005.37,0009.41,0004.72
